DCM6021 KNEW-KBNA

Flight info

Callsign DCM6021
Flight time 1h 6m
Altitude 45000
Route DCT LBY DCT MEI DCT KISTS CHSNE3
Aircraft C750/M-SBDE3FGHRWXY/S

Departure

Time 2026-04-26 01:42
Airport Lakefront Airport (KNEW)

Arrival

Time 2026-04-26 02:48
Airport Nashville International Airport (KBNA)
Time Latitude Longitude Altitude Speed Heading
2026-04-26 01:31 30.03471 -90.02778 11 ft 0 kts 51°
2026-04-26 01:37 30.03504 -90.02773 11 ft 10 kts 323°
2026-04-26 01:38 30.03541 -90.02851 11 ft 14 kts 340°
2026-04-26 01:38 30.03673 -90.02859 11 ft 26 kts 359°
2026-04-26 01:38 30.03887 -90.02861 11 ft 32 kts
2026-04-26 01:38 30.04101 -90.02865 12 ft 30 kts 360°
2026-04-26 01:39 30.04306 -90.02867 12 ft 29 kts 359°
2026-04-26 01:39 30.04503 -90.02871 12 ft 28 kts 359°
2026-04-26 01:39 30.04691 -90.02873 11 ft 27 kts 359°
2026-04-26 01:39 30.04871 -90.02858 11 ft 25 kts 17°
2026-04-26 01:40 30.05039 -90.02846 11 ft 24 kts 356°
2026-04-26 01:40 30.05200 -90.02873 11 ft 23 kts 351°
2026-04-26 01:40 30.05272 -90.02906 11 ft 0 kts 279°
2026-04-26 01:41 30.05272 -90.02947 11 ft 10 kts 268°
2026-04-26 01:41 30.05233 -90.02992 11 ft 3 kts 179°
2026-04-26 01:41 30.05163 -90.02990 10 ft 36 kts 179°
2026-04-26 01:41 30.04500 -90.02978 32 ft 138 kts 179°
2026-04-26 01:42 30.03452 -90.02953 496 ft 165 kts 179°
2026-04-26 01:42 30.02217 -90.02907 1109 ft 190 kts 179°
2026-04-26 01:42 30.00835 -90.02846 1782 ft 213 kts 179°
2026-04-26 01:42 29.99232 -90.02763 1965 ft 243 kts 179°
2026-04-26 01:43 29.97491 -90.02669 1913 ft 257 kts 178°
2026-04-26 01:43 29.95680 -90.02402 2824 ft 262 kts 162°
2026-04-26 01:43 29.94218 -90.01141 3930 ft 270 kts 130°
2026-04-26 01:43 29.93384 -89.99182 4940 ft 278 kts 103°
2026-04-26 01:44 29.93421 -89.96944 5816 ft 285 kts 73°
2026-04-26 01:44 29.94364 -89.94994 6721 ft 284 kts 44°
2026-04-26 01:44 29.95994 -89.93770 7743 ft 280 kts 19°
2026-04-26 01:44 29.97832 -89.93016 8834 ft 282 kts 15°
2026-04-26 01:45 29.99716 -89.92294 9832 ft 289 kts 15°
2026-04-26 01:45 30.01663 -89.91514 10397 ft 307 kts 16°
2026-04-26 01:45 30.03767 -89.90652 10637 ft 334 kts 16°
2026-04-26 01:45 30.06045 -89.89723 10876 ft 357 kts 16°
2026-04-26 01:46 30.08389 -89.88769 11730 ft 357 kts 16°
2026-04-26 01:46 30.10747 -89.87811 12512 ft 361 kts 16°
2026-04-26 01:46 30.13126 -89.86846 13344 ft 363 kts 15°
2026-04-26 01:46 30.15519 -89.85873 14053 ft 367 kts 15°
2026-04-26 01:47 30.17936 -89.84890 14725 ft 370 kts 15°
2026-04-26 01:47 30.20375 -89.83896 15402 ft 373 kts 15°
2026-04-26 01:47 30.22838 -89.82894 16093 ft 377 kts 15°
2026-04-26 01:47 30.25323 -89.81881 16789 ft 380 kts 15°
2026-04-26 01:48 30.27830 -89.80859 17518 ft 384 kts 15°
2026-04-26 01:48 30.30360 -89.79827 18241 ft 388 kts 15°
2026-04-26 01:48 30.32921 -89.78782 18889 ft 392 kts 15°
2026-04-26 01:48 30.35472 -89.77740 19530 ft 396 kts 15°
2026-04-26 01:49 30.38091 -89.76670 20188 ft 401 kts 14°
2026-04-26 01:49 30.40742 -89.75586 20871 ft 405 kts 15°
2026-04-26 01:49 30.43415 -89.74492 21545 ft 410 kts 14°
2026-04-26 01:49 30.46119 -89.73386 22209 ft 414 kts 14°
2026-04-26 01:50 30.48857 -89.72265 22870 ft 419 kts 14°
2026-04-26 01:50 30.51631 -89.71128 23517 ft 424 kts 14°
2026-04-26 01:50 30.54432 -89.69979 24098 ft 427 kts 14°
2026-04-26 01:50 30.57238 -89.68827 24703 ft 430 kts 14°
2026-04-26 01:51 30.60067 -89.67665 25295 ft 432 kts 14°
2026-04-26 01:51 30.62874 -89.66513 25875 ft 435 kts 13°
2026-04-26 01:51 30.65737 -89.65336 26455 ft 438 kts 13°
2026-04-26 01:51 30.68616 -89.64151 27035 ft 441 kts 13°
2026-04-26 01:52 30.71523 -89.62955 27621 ft 443 kts 13°
2026-04-26 01:52 30.73461 -89.62157 28004 ft 445 kts 13°
2026-04-26 01:52 30.76390 -89.60950 28559 ft 448 kts 13°
2026-04-26 01:52 30.79345 -89.59732 29111 ft 451 kts 13°
2026-04-26 01:53 30.82313 -89.58508 29649 ft 454 kts 13°
2026-04-26 01:53 30.85300 -89.57275 30135 ft 458 kts 13°
2026-04-26 01:53 30.88314 -89.56030 30558 ft 461 kts 13°
2026-04-26 01:53 30.91349 -89.54774 31017 ft 463 kts 13°
2026-04-26 01:54 30.94376 -89.53519 31667 ft 461 kts 13°
2026-04-26 01:54 30.97393 -89.52269 32294 ft 460 kts 12°
2026-04-26 01:54 31.00408 -89.51022 32895 ft 459 kts 12°
2026-04-26 01:54 31.03415 -89.49777 33521 ft 458 kts 12°
2026-04-26 01:55 31.06379 -89.48546 34114 ft 457 kts 12°
2026-04-26 01:55 31.09370 -89.47304 34679 ft 456 kts 12°
2026-04-26 01:55 31.12353 -89.46066 35233 ft 454 kts 12°
2026-04-26 01:55 31.15328 -89.44830 35817 ft 453 kts 12°
2026-04-26 01:56 31.18291 -89.43596 36400 ft 452 kts 12°
2026-04-26 01:56 31.21259 -89.42369 36985 ft 451 kts 11°
2026-04-26 01:56 31.24212 -89.41136 37594 ft 449 kts 11°
2026-04-26 01:56 31.27153 -89.39905 38205 ft 449 kts 12°
2026-04-26 01:57 31.30097 -89.38681 38726 ft 448 kts 12°
2026-04-26 01:57 31.33029 -89.37458 39170 ft 448 kts 12°
2026-04-26 01:57 31.35961 -89.36231 39611 ft 448 kts 12°
2026-04-26 01:57 31.38897 -89.34997 40079 ft 447 kts 12°
2026-04-26 01:58 31.41822 -89.33751 40530 ft 449 kts 13°
2026-04-26 01:58 31.44691 -89.32214 40957 ft 454 kts 17°
2026-04-26 01:58 31.47538 -89.30631 41438 ft 453 kts 17°
2026-04-26 01:58 31.50352 -89.29090 41900 ft 452 kts 17°
2026-04-26 01:59 31.53203 -89.27533 42385 ft 452 kts 17°
2026-04-26 01:59 31.56047 -89.25964 42835 ft 452 kts 17°
2026-04-26 01:59 31.58892 -89.24388 43258 ft 452 kts 17°
2026-04-26 01:59 31.61740 -89.22818 43670 ft 453 kts 17°
2026-04-26 02:00 31.64602 -89.21243 44049 ft 454 kts 17°
2026-04-26 02:00 31.67462 -89.19661 44473 ft 454 kts 18°
2026-04-26 02:00 31.70326 -89.18075 44815 ft 454 kts 18°
2026-04-26 02:01 31.76131 -89.14872 44894 ft 469 kts 18°
2026-04-26 02:01 31.82092 -89.11563 44896 ft 485 kts 18°
2026-04-26 02:02 31.88283 -89.08131 44901 ft 499 kts 18°
2026-04-26 02:02 31.94644 -89.04592 44903 ft 512 kts 18°
2026-04-26 02:03 32.01149 -89.00968 44900 ft 518 kts 18°
2026-04-26 02:03 32.07688 -88.97320 44931 ft 520 kts 19°
2026-04-26 02:04 32.14238 -88.93662 44899 ft 521 kts 19°
2026-04-26 02:04 32.20790 -88.89997 44903 ft 521 kts 19°
2026-04-26 02:05 32.27299 -88.86350 44907 ft 521 kts 19°
2026-04-26 02:05 32.33878 -88.82677 44904 ft 522 kts 18°
2026-04-26 02:06 32.40781 -88.80375 44890 ft 510 kts
2026-04-26 02:06 32.47808 -88.79879 44910 ft 506 kts 356°
2026-04-26 02:07 32.54840 -88.79468 44907 ft 506 kts 356°
2026-04-26 02:07 32.61871 -88.79081 44935 ft 506 kts 356°
2026-04-26 02:08 32.68912 -88.78678 44909 ft 506 kts 356°
2026-04-26 02:08 32.75959 -88.78282 44914 ft 506 kts 356°
2026-04-26 02:09 32.82998 -88.77884 44914 ft 506 kts 356°
2026-04-26 02:09 32.90000 -88.77488 44921 ft 507 kts 356°
2026-04-26 02:10 32.97047 -88.77081 44908 ft 507 kts 356°
2026-04-26 02:10 33.04102 -88.76688 44901 ft 506 kts 356°
2026-04-26 02:11 33.11144 -88.76284 44887 ft 507 kts 357°
2026-04-26 02:11 33.18163 -88.75885 44891 ft 507 kts 357°
2026-04-26 02:12 33.25215 -88.75482 44892 ft 507 kts 357°
2026-04-26 02:12 33.32277 -88.75078 44897 ft 507 kts 357°
2026-04-26 02:13 33.39329 -88.74674 44894 ft 507 kts 357°
2026-04-26 02:13 33.46389 -88.74270 44892 ft 507 kts 357°
2026-04-26 02:14 33.53397 -88.73877 44894 ft 507 kts 357°
2026-04-26 02:14 33.60454 -88.73456 44894 ft 507 kts 357°
2026-04-26 02:15 33.67504 -88.73047 44893 ft 507 kts 357°
2026-04-26 02:15 33.74567 -88.72647 44886 ft 508 kts 357°
2026-04-26 02:16 33.81635 -88.72234 44899 ft 508 kts 357°
2026-04-26 02:16 33.88706 -88.71820 44899 ft 508 kts 357°
2026-04-26 02:17 33.95741 -88.71416 44913 ft 509 kts 357°
2026-04-26 02:17 34.02820 -88.71006 44895 ft 509 kts 357°
2026-04-26 02:18 34.09912 -88.70592 44897 ft 509 kts 357°
2026-04-26 02:18 34.16999 -88.70176 44899 ft 509 kts 357°
2026-04-26 02:19 34.24090 -88.69764 44900 ft 510 kts 357°
2026-04-26 02:19 34.31188 -88.69346 44900 ft 510 kts 357°
2026-04-26 02:20 34.38233 -88.68933 44897 ft 505 kts 357°
2026-04-26 02:20 34.41680 -88.68726 44882 ft 489 kts 357°
2026-04-26 02:20 34.45082 -88.68528 44883 ft 491 kts 356°
2026-04-26 02:21 34.51921 -88.68133 44685 ft 486 kts 357°
2026-04-26 02:21 34.55271 -88.67923 43983 ft 475 kts 356°
2026-04-26 02:21 34.58532 -88.67729 43363 ft 463 kts 356°
2026-04-26 02:21 34.61716 -88.67547 42772 ft 451 kts 355°
2026-04-26 02:22 34.64813 -88.67366 42190 ft 441 kts 355°
2026-04-26 02:22 34.67853 -88.67185 41624 ft 434 kts 354°
2026-04-26 02:22 34.70862 -88.67009 41059 ft 432 kts 354°
2026-04-26 02:22 34.73829 -88.66837 40519 ft 433 kts 354°
2026-04-26 02:23 34.76840 -88.66661 39934 ft 434 kts 354°
2026-04-26 02:23 34.79866 -88.66318 39348 ft 442 kts 360°
2026-04-26 02:23 34.82887 -88.65445 38773 ft 452 kts
2026-04-26 02:23 34.85847 -88.64029 38118 ft 462 kts 15°
2026-04-26 02:24 34.88673 -88.62065 37509 ft 475 kts 24°
2026-04-26 02:24 34.91307 -88.59552 36888 ft 486 kts 32°
2026-04-26 02:24 34.93854 -88.56819 36252 ft 488 kts 32°
2026-04-26 02:24 34.96405 -88.54099 35604 ft 488 kts 32°
2026-04-26 02:25 34.98972 -88.51378 34988 ft 489 kts 33°
2026-04-26 02:25 35.01533 -88.48651 34309 ft 489 kts 33°
2026-04-26 02:25 35.04098 -88.45904 33635 ft 492 kts 33°
2026-04-26 02:25 35.06682 -88.43141 32973 ft 493 kts 33°
2026-04-26 02:26 35.09264 -88.40382 32320 ft 494 kts 33°
2026-04-26 02:26 35.11848 -88.37619 31654 ft 494 kts 33°
2026-04-26 02:26 35.14437 -88.34844 30999 ft 495 kts 34°
2026-04-26 02:26 35.17027 -88.32067 30358 ft 497 kts 34°
2026-04-26 02:27 35.19602 -88.29300 29668 ft 489 kts 34°
2026-04-26 02:27 35.22143 -88.26567 29021 ft 484 kts 34°
2026-04-26 02:27 35.24665 -88.23858 28394 ft 478 kts 34°
2026-04-26 02:27 35.27149 -88.21189 27753 ft 473 kts 35°
2026-04-26 02:28 35.29575 -88.18576 27145 ft 467 kts 35°
2026-04-26 02:28 35.32000 -88.15960 26530 ft 462 kts 35°
2026-04-26 02:28 35.34408 -88.13364 25918 ft 457 kts 36°
2026-04-26 02:28 35.36788 -88.10796 25311 ft 452 kts 36°
2026-04-26 02:29 35.39139 -88.08256 24717 ft 450 kts 36°
2026-04-26 02:29 35.41482 -88.05725 24127 ft 446 kts 36°
2026-04-26 02:29 35.43775 -88.03243 23552 ft 443 kts 37°
2026-04-26 02:29 35.46066 -88.00759 22926 ft 437 kts 37°
2026-04-26 02:30 35.48339 -87.98296 22350 ft 433 kts 37°
2026-04-26 02:30 35.50579 -87.95866 21783 ft 426 kts 37°
2026-04-26 02:30 35.52795 -87.93463 21223 ft 423 kts 37°
2026-04-26 02:30 35.54995 -87.91074 20665 ft 419 kts 37°
2026-04-26 02:31 35.57173 -87.88706 20106 ft 416 kts 37°
2026-04-26 02:31 35.59306 -87.86384 19570 ft 412 kts 37°
2026-04-26 02:31 35.61444 -87.84056 19030 ft 409 kts 38°
2026-04-26 02:31 35.63567 -87.81744 18498 ft 405 kts 38°
2026-04-26 02:32 35.65669 -87.79453 17939 ft 402 kts 38°
2026-04-26 02:32 35.67752 -87.77178 17394 ft 398 kts 38°
2026-04-26 02:32 35.69820 -87.74920 16873 ft 395 kts 38°
2026-04-26 02:32 35.71850 -87.72701 16356 ft 380 kts 38°
2026-04-26 02:33 35.73781 -87.70584 15881 ft 366 kts 38°
2026-04-26 02:33 35.75630 -87.68456 15366 ft 364 kts 44°
2026-04-26 02:33 35.76909 -87.65810 14886 ft 364 kts 64°
2026-04-26 02:33 35.77831 -87.62903 14449 ft 363 kts 67°
2026-04-26 02:34 35.78704 -87.59998 13967 ft 359 kts 67°
2026-04-26 02:34 35.79586 -87.57132 13472 ft 355 kts 66°
2026-04-26 02:34 35.80474 -87.54316 12993 ft 351 kts 66°
2026-04-26 02:34 35.81349 -87.51515 12531 ft 348 kts 67°
2026-04-26 02:35 35.82203 -87.48739 12084 ft 345 kts 67°
2026-04-26 02:35 35.83133 -87.46138 11955 ft 314 kts 60°
2026-04-26 02:35 35.84060 -87.43801 11958 ft 299 kts 62°
2026-04-26 02:35 35.84951 -87.41475 11927 ft 297 kts 62°
2026-04-26 02:36 35.85837 -87.39199 11035 ft 302 kts 62°
2026-04-26 02:36 35.86759 -87.36871 10378 ft 299 kts 62°
2026-04-26 02:36 35.87465 -87.34483 9729 ft 303 kts 79°
2026-04-26 02:36 35.87364 -87.31933 9607 ft 296 kts 97°
2026-04-26 02:37 35.86972 -87.29440 9425 ft 297 kts 100°
2026-04-26 02:37 35.86535 -87.26955 9177 ft 295 kts 100°
2026-04-26 02:37 35.86126 -87.24488 8908 ft 292 kts 99°
2026-04-26 02:37 35.85736 -87.22037 8639 ft 290 kts 99°
2026-04-26 02:38 35.85343 -87.19607 8376 ft 288 kts 99°
2026-04-26 02:38 35.84944 -87.17196 8122 ft 286 kts 99°
2026-04-26 02:38 35.84683 -87.15611 7950 ft 284 kts 99°
2026-04-26 02:38 35.84293 -87.13229 7695 ft 282 kts 99°
2026-04-26 02:39 35.83915 -87.10933 7448 ft 265 kts 99°
2026-04-26 02:39 35.83559 -87.08773 7207 ft 250 kts 99°
2026-04-26 02:39 35.83390 -87.06071 6822 ft 234 kts 75°
2026-04-26 02:39 35.83938 -87.04258 6902 ft 226 kts 66°
2026-04-26 02:40 35.84354 -87.03047 6967 ft 227 kts 66°
2026-04-26 02:40 35.84969 -87.01243 6971 ft 228 kts 66°
2026-04-26 02:40 35.85574 -86.99464 6968 ft 229 kts 66°
2026-04-26 02:40 35.86189 -86.97658 6971 ft 228 kts 66°
2026-04-26 02:41 35.86804 -86.95857 6973 ft 228 kts 66°
2026-04-26 02:41 35.87415 -86.94060 6945 ft 214 kts 65°
2026-04-26 02:41 35.87921 -86.92532 6545 ft 183 kts 66°
2026-04-26 02:41 35.88400 -86.91123 5957 ft 169 kts 65°
2026-04-26 02:42 35.88833 -86.89828 5478 ft 152 kts 66°
2026-04-26 02:42 35.89221 -86.88670 5476 ft 160 kts 66°
2026-04-26 02:42 35.89679 -86.87314 5892 ft 171 kts 65°
2026-04-26 02:42 35.90131 -86.85938 5425 ft 176 kts 66°
2026-04-26 02:43 35.91668 -86.83617 4425 ft 180 kts 46°
2026-04-26 02:43 35.92571 -86.82459 4283 ft 200 kts 46°
2026-04-26 02:43 35.93639 -86.81134 4265 ft 225 kts 45°
2026-04-26 02:44 35.94801 -86.79740 4235 ft 234 kts 44°
2026-04-26 02:44 35.95960 -86.78334 4155 ft 241 kts 45°
2026-04-26 02:44 35.97120 -86.76905 4072 ft 238 kts 45°
2026-04-26 02:44 35.98356 -86.75415 3755 ft 247 kts 44°
2026-04-26 02:45 35.99556 -86.73984 3636 ft 230 kts 45°
2026-04-26 02:45 36.00669 -86.72663 3318 ft 218 kts 44°
2026-04-26 02:45 36.01754 -86.71389 2831 ft 211 kts 44°
2026-04-26 02:45 36.02871 -86.70298 2437 ft 202 kts 32°
2026-04-26 02:46 36.04060 -86.69645 2141 ft 168 kts 19°
2026-04-26 02:46 36.05116 -86.69246 1939 ft 154 kts 19°
2026-04-26 02:46 36.06190 -86.68810 1714 ft 163 kts 20°
2026-04-26 02:46 36.07238 -86.68371 1463 ft 155 kts 20°
2026-04-26 02:47 36.08230 -86.67977 1249 ft 144 kts 19°
2026-04-26 02:47 36.09130 -86.67619 1055 ft 133 kts 19°
2026-04-26 02:47 36.10011 -86.67272 864 ft 133 kts 18°
2026-04-26 02:47 36.10902 -86.66914 683 ft 135 kts 18°
2026-04-26 02:48 36.11770 -86.66570 583 ft 121 kts 18°
2026-04-26 02:48 36.12414 -86.66311 565 ft 75 kts 18°
2026-04-26 02:48 36.12772 -86.66167 559 ft 23 kts 15°
2026-04-26 02:48 36.12825 -86.66274 557 ft 17 kts 238°
2026-04-26 02:49 36.12753 -86.66318 561 ft 8 kts 197°
2026-04-26 02:49 36.12699 -86.66342 561 ft 8 kts 199°
2026-04-26 02:49 36.12645 -86.66363 562 ft 9 kts 197°
2026-04-26 02:49 36.12584 -86.66386 562 ft 11 kts 198°
2026-04-26 02:50 36.12496 -86.66421 564 ft 16 kts 199°
2026-04-26 02:50 36.12384 -86.66465 563 ft 16 kts 197°
2026-04-26 02:50 36.12292 -86.66515 570 ft 13 kts 236°
2026-04-26 02:50 36.12305 -86.66635 567 ft 22 kts 289°
2026-04-26 02:51 36.12370 -86.66853 567 ft 26 kts 308°
2026-04-26 02:51 36.12416 -86.67006 570 ft 19 kts 214°
2026-04-26 02:51 36.12287 -86.67148 571 ft 28 kts 224°
2026-04-26 02:51 36.12156 -86.67250 574 ft 18 kts 154°
2026-04-26 02:52 36.12057 -86.67182 576 ft 16 kts 200°
2026-04-26 02:52 36.12047 -86.67237 572 ft 0 kts 289°